This demonstration page uses our WeatherBlox Daily Observations layout. Learn more.

Left ArrowRight Arrow

Hourly Observations for March 23, 2015

Temp ( °F °C ) Dew Point ( °F °C ) Humidity (%) Winds ( mph kmh ) Pressure ( in mb ) Visibility ( mi km ) Precip ( " mm )
6:30 am 06:30 Mostly Clear 28 -2 21 -6 74 74 NNE 6 9 30.24 1024 10 16 N/A
6:45 am 06:45 Mostly Clear 28 -2 19 -7 69 69 NNE 7 11 30.24 1024 10 16 N/A
7:59 am 07:59 Partly Cloudy 28 -2 18 -8 64 64 ENE 7 11 30.24 1024 10 16 N/A
8:45 am 08:45 Mostly Sunny 32 undefined 12 -11 44 44 E 9 15 30.21 1023 10 16 N/A
9:46 am 09:46 Partly Cloudy 36 2 7 -14 30 30 E 10 17 30.24 1024 10 16 N/A
10:56 am 10:56 Partly Cloudy 39 4 7 -14 26 26 E 12 19 30.21 1023 10 16 N/A
11:45 am 11:45 Mostly Cloudy 39 4 7 -14 26 26 E 13 20 30.21 1023 10 16 N/A
12:53 pm 12:53 Mostly Cloudy 45 7 9 -13 23 23 E 10 17 30.18 1022 10 16 N/A
1:45 pm 13:45 Mostly Cloudy 46 8 10 -12 23 23 E 9 15 30.15 1021 10 16 N/A
2:52 pm 14:52 Mostly Cloudy 46 8 10 -12 23 23 ESE 7 11 30.12 1020 10 16 N/A
3:59 pm 15:59 Cloudy 41 5 21 -6 45 45 NNE 17 28 30.15 1021 10 16 N/A
4:58 pm 16:58 Cloudy 36 2 25 -4 65 65 E 16 26 30.09 1019 10 16 N/A
5:45 pm 17:45 Cloudy with Light Showers 37 3 27 -3 65 65 NNE 16 26 30.15 1021 8 13 N/A
5:56 pm 17:56 Cloudy 36 2 27 -3 70 70 NNE 16 26 30.18 1022 7 11 N/A
6:01 pm 18:01 Cloudy with Mist and Fog 36 2 25 -4 65 65 NNE 16 26 30.18 1022 2 3 N/A
6:03 pm 18:03 Cloudy with Light Rain 36 2 25 -4 65 65 NNE 16 26 30.18 1022 7 11 N/A
6:45 pm 18:45 Cloudy 36 2 25 -4 65 65 NE 15 24 30.18 1022 10 16 N/A
7:57 pm 19:57 Cloudy 32 undefined 25 -4 75 75 ENE 14 22 30.18 1022 10 16 N/A
8:55 pm 20:55 Cloudy 32 undefined 25 -4 75 75 NE 9 15 30.21 1023 10 16 N/A
9:47 pm 21:47 Cloudy 32 undefined 25 -4 75 75 ENE 9 15 30.18 1022 10 16 N/A

Powered by AerisWeather